This is the latest recevied weather packets stored in our database for station/object AD8PA-13. If no packets are shown the sender has not sent any weather packets the latest 10 day(s).
| Time | Temp. | Humidity | Pressure | Rain* | Wind** | Luminosity | Snow |
|---|---|---|---|---|---|---|---|
| 1777201292 | 5° C | 98% | 1020.9 hPa | 0 mm | - | - | - |
| 1777200388 | 5° C | 97% | 1020.5 hPa | 0 mm | - | - | - |
| 1777199488 | 4.44° C | 97% | 1020.4 hPa | 0 mm | - | - | - |
| 1777198585 | 4.44° C | 97% | 1020.1 hPa | 0 mm | - | - | - |
| 1777197686 | 5° C | 96% | 1020 hPa | 0 mm | - | - | - |
| 1777196785 | 4.44° C | 95% | 1019.9 hPa | 0 mm | - | - | - |
| 1777195881 | 5° C | 95% | 1019.6 hPa | 0 mm | - | - | - |
| 1777194981 | 5° C | 94% | 1019.2 hPa | 0 mm | - | - | - |
| 1777194081 | 5.56° C | 92% | 1019.3 hPa | 0 mm | - | - | - |
| 1777193176 | 6.11° C | 91% | 1018.8 hPa | 0 mm | - | - | - |
| 1777192276 | 6.67° C | 90% | 1019.1 hPa | 0 mm | - | - | - |
| 1777191371 | 7.22° C | 90% | 1018.9 hPa | 0 mm | - | - | - |
| 1777190468 | 7.78° C | 89% | 1019.1 hPa | 0 mm | - | - | - |
| 1777189568 | 7.78° C | 89% | 1018.8 hPa | 0 mm | - | - | - |
| 1777188667 | 7.78° C | 89% | 1018.7 hPa | 0 mm | - | - | - |
| 1777187764 | 7.78° C | 89% | 1018.9 hPa | 0 mm | - | - | - |
| 1777186862 | 7.78° C | 89% | 1018.9 hPa | 0 mm | - | - | - |
| 1777185961 | 7.78° C | 89% | 1019.2 hPa | 0 mm | - | - | - |
| 1777185060 | 7.78° C | 89% | 1019.3 hPa | 0 mm | - | - | - |
| 1777184155 | 7.78° C | 89% | 1019.3 hPa | 0 mm | - | - | - |
| 1777183253 | 7.78° C | 89% | 1019.2 hPa | 0 mm | - | - | - |
| 1777182354 | 7.78° C | 89% | 1019.5 hPa | 0 mm | - | - | - |
| 1777181453 | 7.78° C | 89% | 1019.4 hPa | 0 mm | - | - | - |
| 1777180552 | 7.78° C | 88% | 1019.4 hPa | 0 mm | - | - | - |
| 1777179646 | 7.78° C | 88% | 1019 hPa | 0 mm | - | - | - |
* Rain latest hour (hover to see other rain measurements)
** Current wind speed in m/s (hover to see current wind gust speed)